FREGAT R/B, 43088

Orbit data source: Space-Track

FREGAT R/B, 43088 is space debris in GEO originally from a launch on Tue, 26 Dec 2017 UTC launched from the Tyuratam Missile And Space Complex (TTMTR). Debris objects in space refer to the collection of defunct objects orbiting the Earth. Examples of debris include non-operational satellites, rocket bodies, and fragments generated from explosions, collisions, or faulty payload assembly.

Loading next visibility...
Identifier
43088, 2017-086B
Orbit
GEO
Country
Flag of CISCIS
Related business
Manufacturer
Lavochkin
Mission
Spacecraft
Bus & Motor
FREGAT, Unknown motor
Mass
1,000 kg wet, 1,000 kg dry
Launch date (UTC)
2017-12-26 (8 years ago)
Launch vehicle
Unknown
Launch site
Tyuratam Missile And Space Complex (TTMTR)
Object type
Payload
Rocket body
Debris
Shape & HBR
Cyl, 1.6 m
Radar Cross Section
8.683 m², Medium (>0.1 m² and < 1m²)

Expand to show TLE details & history
Last TLE update: 3 days ago

TLE from 3 days ago
0 FREGAT R/B
1 43088U 17086B   26170.54663641 -.00000296  00000-0  00000-0 0  9994
2 43088   7.5459  66.3051 0128358  27.8634 332.7032  0.98390616 30468
Epoch: 2026-06-19T13:07Z
TLE epoch observation values (Epoch: 2026-06-19T13:07:09.385Z)
Latitude
0.00001°
Longitude
-38.36137°
Altitude
35,833.861 km
Speed
3.09 km/s
True Right ascension
04h 24m 48s
True Declination
0° 00' 00"
Sunlit
Object was in daylight at epoch
Visualization orbit readout
Latitude
Unknown
Longitude
Unknown
Altitude
Unknown
Speed
Unknown
Apparent Right ascension
Unknown
Apparent Declination
Unknown
Sunlit
N/A
Visualization observer readout
Local Sidereal Time
21:44:40
Azimuth
Unknown
Elevation
Unknown
Doppler factor
Unknown
Orbital elements
Apogee altitude
36,871.479 km
Perigee altitude
35,775.263 km
Semi-major axis
42,701.508 km
Eccentricity
0.01284
Inclination
7.5459°
RAAN
66.3051°
Arg. of periapsis
27.8634°
True anomaly
332.01892°
Mean anomaly
332.7032°
Eccentric anomaly
332.36204°
Mean motion
0.24597 °/min
Orbital period
1,463.61 mins
BSTAR
0
Loading maneuver chart data...
Computing Atmospheric mass density...
Loading historical data...
Loading historical data...
Loading historical data...
Loading historical data...
Loading historical data...
Loading historical data...
Loading historical data...

Documentation

Showing up to 5 results
|